Location: Bremen
(53.0793°N, 8.8017°E)
Time: 10:25:11
(UTC+01:00)

Transit 2A - Pass Details

Date: 09 December 2021
Orbit: 591 x 966 km, 66.7° (Epoch: 26 January)

Event Time Altitude Azimuth Distance (km) Brightness Sun altitude
Exits shadow 03:52:14 21° 23° (NNE) 2,013 8.4 -39.6°
Drops below altitude 10° 03:55:37 10° 53° (NE) 2,714 9.4 -39.1°
Sets 03:58:46 0° 68° (ENE) 3,648 10.4 -38.6°
